When you browse on this site, cookies collect data to enhance your experience and personalize the content and advertising you see.
Visit our Privacy Policy to learn more. By continuing to use the site, you agree to this use of cookies and data.
  • In Switzerland
  • List of Countries
  • For 7 days
  • Water Temperature
  • Weather Map
  • Weather Widgets
  • user-avatar
    Login

    Hourly Weather Tignes

    Today, 15 November, Friday

    Time Temperature Precipitation Wind Pressure Humidity
    00:00 -8°C° 0 mm 4 mps 570 mmHg 94%
    01:00 -7°C° 2.6 mm 3 mps 570 mmHg 95%
    02:00 -7°C° 2.6 mm 3 mps 570 mmHg 96%
    03:00 -6°C° 2.6 mm 2 mps 570 mmHg 96%
    04:00 -6°C° 2 mm 2 mps 570 mmHg 97%
    05:00 -6°C° 2 mm 2 mps 571 mmHg 97%
    06:00 -7°C° 0 mm 2 mps 572 mmHg 97%
    07:00 -6°C° 0.3 mm 2 mps 572 mmHg 95%
    08:00 -6°C° 0.3 mm 2 mps 573 mmHg 93%
    09:00 -5°C° 0.3 mm 2 mps 573 mmHg 92%
    10:00 -5°C° 0 mm 2 mps 574 mmHg 89%
    11:00 -4°C° 0 mm 2 mps 574 mmHg 87%
    12:00 -4°C° 0 mm 2 mps 574 mmHg 84%
    13:00 -4°C° 0.1 mm 2 mps 574 mmHg 87%
    14:00 -5°C° 0.1 mm 2 mps 573 mmHg 90%
    15:00 -4°C° 0.1 mm 1 mps 573 mmHg 92%
    16:00 -6°C° 0 mm 1 mps 573 mmHg 92%
    17:00 -7°C° 0 mm 1 mps 572 mmHg 92%
    18:00 -9°C° 0 mm 2 mps 572 mmHg 92%
    19:00 -10°C° 0 mm 2 mps 572 mmHg 91%
    20:00 -10°C° 0 mm 2 mps 572 mmHg 90%
    21:00 -10°C° 0 mm 2 mps 573 mmHg 90%
    22:00 -10°C° 0 mm 2 mps 573 mmHg 90%
    23:00 -10°C° 0 mm 2 mps 573 mmHg 91%

    Tomorrow, 16 November, Saturday

    Time Temperature Precipitation Wind Pressure Humidity
    00:00 -10°C° 0 mm 2 mps 573 mmHg 91%
    01:00 -10°C° 0.5 mm 2 mps 573 mmHg 92%
    02:00 -9°C° 0.5 mm 2 mps 574 mmHg 92%
    03:00 -9°C° 0.5 mm 2 mps 574 mmHg 92%
    04:00 -9°C° 0.4 mm 2 mps 574 mmHg 92%
    05:00 -10°C° 0.4 mm 2 mps 575 mmHg 92%
    06:00 -10°C° 0.4 mm 2 mps 575 mmHg 92%
    07:00 -9°C° 0.2 mm 2 mps 576 mmHg 92%
    08:00 -8°C° 0.2 mm 2 mps 577 mmHg 91%
    09:00 -6°C° 0.2 mm 2 mps 578 mmHg 91%
    10:00 -6°C° 0.1 mm 2 mps 579 mmHg 90%
    11:00 -5°C° 0.1 mm 2 mps 579 mmHg 89%
    12:00 -5°C° 0.1 mm 2 mps 579 mmHg 88%
    13:00 -5°C° 0 mm 2 mps 579 mmHg 90%
    14:00 -6°C° 0 mm 2 mps 578 mmHg 92%
    15:00 -7°C° 0 mm 2 mps 578 mmHg 94%
    16:00 -8°C° 0 mm 2 mps 577 mmHg 93%
    17:00 -10°C° 0 mm 2 mps 577 mmHg 93%
    18:00 -12°C° 0 mm 2 mps 576 mmHg 92%
    19:00 -12°C° 0 mm 2 mps 577 mmHg 91%
    20:00 -12°C° 0 mm 2 mps 577 mmHg 90%
    21:00 -12°C° 0 mm 2 mps 577 mmHg 89%
    22:00 -12°C° 0 mm 2 mps 576 mmHg 87%
    23:00 -12°C° 0 mm 2 mps 576 mmHg 85%

    Day after tomorrow, 17 November, Sunday

    Time Temperature Precipitation Wind Pressure Humidity
    00:00 -9°C° 0 mm 1 mps 576 mmHg 83%
    01:00 -9°C° 0 mm 1 mps 575 mmHg 81%
    02:00 -8°C° 0 mm 1 mps 575 mmHg 80%
    03:00 -7°C° 0 mm 1 mps 575 mmHg 79%
    04:00 -7°C° 0.1 mm 1 mps 574 mmHg 80%
    05:00 -8°C° 0.1 mm 2 mps 574 mmHg 82%
    06:00 -8°C° 0.1 mm 2 mps 573 mmHg 84%
    07:00 -7°C° 1.6 mm 2 mps 573 mmHg 87%
    08:00 -6°C° 1.6 mm 1 mps 573 mmHg 91%
    09:00 -6°C° 1.6 mm 1 mps 572 mmHg 94%
    10:00 -4°C° 1.9 mm 1 mps 573 mmHg 94%
    11:00 -4°C° 1.9 mm 1 mps 573 mmHg 94%
    12:00 -3°C° 1.9 mm 1 mps 573 mmHg 95%
    13:00 -3°C° 2.6 mm 1 mps 573 mmHg 95%
    14:00 -3°C° 2.6 mm 1 mps 573 mmHg 96%
    15:00 -4°C° 2.6 mm 1 mps 573 mmHg 97%
    16:00 -4°C° 0.6 mm 1 mps 573 mmHg 97%
    17:00 -6°C° 0.6 mm 1 mps 573 mmHg 97%
    18:00 -7°C° 0.6 mm 1 mps 573 mmHg 97%
    19:00 -7°C° 0.6 mm 1 mps 574 mmHg 97%
    20:00 -7°C° 0.6 mm 1 mps 574 mmHg 97%
    21:00 -7°C° 0.6 mm 1 mps 575 mmHg 97%
    22:00 -7°C° 0.7 mm 1 mps 575 mmHg 97%
    23:00 -6°C° 0.7 mm 1 mps 575 mmHg 97%

    18 November, Monday

    Time Temperature Precipitation Wind Pressure Humidity
    00:00 -6°C° 0.7 mm 1 mps 575 mmHg 97%
    01:00 -7°C° 0.2 mm 1 mps 575 mmHg 97%
    02:00 -8°C° 0.2 mm 1 mps 575 mmHg 97%
    03:00 -8°C° 0.2 mm 1 mps 575 mmHg 97%
    04:00 -8°C° 0.1 mm 1 mps 575 mmHg 96%
    05:00 -9°C° 0.1 mm 1 mps 575 mmHg 96%
    06:00 -9°C° 0.1 mm 1 mps 575 mmHg 96%
    07:00 -8°C° 0.1 mm 1 mps 576 mmHg 94%
    08:00 -7°C° 0.1 mm 1 mps 577 mmHg 93%
    09:00 -6°C° 0.1 mm 1 mps 577 mmHg 91%
    10:00 -6°C° 0.1 mm 1 mps 578 mmHg 91%
    11:00 -4°C° 0.1 mm 1 mps 578 mmHg 91%
    12:00 -4°C° 0.1 mm 1 mps 578 mmHg 91%
    13:00 -4°C° 0.1 mm 1 mps 578 mmHg 92%
    14:00 -6°C° 0.1 mm 1 mps 578 mmHg 94%
    15:00 -6°C° 0.1 mm 1 mps 578 mmHg 96%
    16:00 -7°C° 0.1 mm 1 mps 578 mmHg 96%
    17:00 -8°C° 0.1 mm 1 mps 577 mmHg 96%
    18:00 -9°C° 0.1 mm 1 mps 577 mmHg 96%
    19:00 -10°C° 0 mm 1 mps 577 mmHg 94%
    20:00 -10°C° 0 mm 1 mps 577 mmHg 93%
    21:00 -11°C° 0 mm 1 mps 577 mmHg 91%
    22:00 -11°C° 0 mm 1 mps 577 mmHg 91%
    23:00 -11°C° 0 mm 1 mps 577 mmHg 91%

    19 November, Tuesday

    Time Temperature Precipitation Wind Pressure Humidity
    00:00 -11°C° 0 mm 1 mps 577 mmHg 90%
    01:00 -14°C° 0 mm 2 mps 577 mmHg 89%
    02:00 -14°C° 0 mm 2 mps 577 mmHg 87%
    03:00 -14°C° 0 mm 2 mps 576 mmHg 85%
    04:00 -14°C° 0 mm 2 mps 576 mmHg 82%
    05:00 -12°C° 0 mm 1 mps 576 mmHg 79%
    06:00 -12°C° 0 mm 1 mps 576 mmHg 76%
    07:00 -10°C° 0 mm 1 mps 577 mmHg 75%
    08:00 -8°C° 0 mm 1 mps 578 mmHg 74%
    09:00 -6°C° 0 mm 1 mps 579 mmHg 73%
    10:00 -4°C° 0 mm 1 mps 579 mmHg 72%
    11:00 -4°C° 0 mm 1 mps 579 mmHg 71%
    12:00 -3°C° 0 mm 1 mps 579 mmHg 70%
    13:00 -4°C° 0 mm 1 mps 579 mmHg 76%
    14:00 -6°C° 0 mm 1 mps 578 mmHg 82%
    15:00 -6°C° 0 mm 1 mps 578 mmHg 87%
    16:00 -8°C° 0 mm 1 mps 577 mmHg 79%
    17:00 -9°C° 0 mm 1 mps 577 mmHg 71%
    18:00 -11°C° 0 mm 1 mps 576 mmHg 62%
    19:00 -13°C° 0 mm 2 mps 577 mmHg 58%
    20:00 -13°C° 0 mm 2 mps 577 mmHg 54%
    21:00 -13°C° 0 mm 2 mps 577 mmHg 50%
    22:00 -13°C° 0 mm 2 mps 577 mmHg 50%
    23:00 -13°C° 0 mm 2 mps 577 mmHg 50%

    20 November, Wednesday

    Time Temperature Precipitation Wind Pressure Humidity
    00:00 -13°C° 0 mm 2 mps 577 mmHg 50%
    01:00 -12°C° 0 mm 2 mps 578 mmHg 50%
    02:00 -12°C° 0 mm 2 mps 578 mmHg 51%
    03:00 -12°C° 0 mm 2 mps 578 mmHg 51%
    04:00 -12°C° 0 mm 2 mps 578 mmHg 52%
    05:00 -12°C° 0 mm 2 mps 578 mmHg 52%
    06:00 -12°C° 0 mm 2 mps 578 mmHg 53%
    07:00 -10°C° 0 mm 2 mps 579 mmHg 59%
    08:00 -8°C° 0 mm 2 mps 580 mmHg 65%
    09:00 -7°C° 0 mm 2 mps 581 mmHg 71%
    10:00 -6°C° 0 mm 2 mps 581 mmHg 73%
    11:00 -6°C° 0 mm 2 mps 581 mmHg 76%
    12:00 -5°C° 0 mm 2 mps 581 mmHg 79%
    13:00 -6°C° 0 mm 2 mps 581 mmHg 83%
    14:00 -6°C° 0 mm 2 mps 580 mmHg 86%
    15:00 -7°C° 0 mm 2 mps 580 mmHg 90%
    16:00 -8°C° 0 mm 2 mps 580 mmHg 88%
    17:00 -10°C° 0 mm 3 mps 579 mmHg 87%
    18:00 -10°C° 0 mm 3 mps 579 mmHg 85%
    19:00 -12°C° 0 mm 3 mps 579 mmHg 84%
    20:00 -12°C° 0 mm 3 mps 579 mmHg 84%
    21:00 -12°C° 0 mm 3 mps 579 mmHg 83%
    22:00 -10°C° 0.1 mm 3 mps 579 mmHg 86%
    23:00 -10°C° 0.1 mm 3 mps 579 mmHg 88%
    Show more